FW6829 Weather Reports


time (UTC)temp
C
wind
direction
speed
KPH
gust
KPH
rain 1hr
cm
rain 24hr
cm
rain mn
cm
humidity
%
barometer
mb
20210620030311 7 16 1.6 19.3 0.00 0.00 0.00 99 457.8
20210620025811 7 194 0.0 19.3 0.00 0.00 0.00 99 646.5
20210620025311 7 187 0.0 19.3 0.00 0.00 0.00 98 569.6
20210620024811 7 221 1.6 19.3 0.00 0.00 0.00 98 430.8
20210620024312 7 0 1.6 19.3 0.00 0.00 0.00 98 458.2
20210620023811 7 355 1.6 19.3 0.00 0.00 0.00 98 749.5
20210620023311 7 330 1.6 19.3 0.00 0.00 0.00 98 738.1
20210620022811 7 277 0.0 19.3 0.00 0.00 0.00 99 1016.2
20210620022311 7 277 4.8 19.3 0.00 0.00 0.00 98 1047.2
20210620021811 7 311 3.2 19.3 0.00 0.00 0.00 98 1090.7
20210620021311 7 322 3.2 19.3 0.00 0.00 0.00 98 1088.5
20210620020811 7 309 3.2 19.3 0.00 0.00 0.00 98 1071.0
20210620020311 7 303 4.8 19.3 0.00 0.00 0.00 98 1053.9
20210620015812 7 291 4.8 19.3 0.00 0.00 0.00 98 1068.2
20210620015311 7 303 4.8 19.3 0.00 0.00 0.00 99 1114.6
20210620014811 7 323 1.6 19.3 0.00 0.00 0.00 99 1120.3
20210620014310 7 312 3.2 19.3 0.00 0.00 0.00 99 1115.4
20210620013809 7 350 3.2 19.3 0.00 0.00 0.00 99 1163.9
20210620013310 7 339 4.8 19.3 0.00 0.00 0.00 99 1134.8
20210620012809 7 309 4.8 19.3 0.00 0.00 0.00 99 1110.3
20210620012309 7 334 1.6 19.3 0.00 0.00 0.00 99 1146.8
20210620011809 7 329 3.2 19.3 0.00 0.00 0.00 99 1115.4
20210620011308 7 344 4.8 19.3 0.00 0.00 0.00 99 1107.8
20210620010808 7 318 3.2 19.3 0.00 0.00 0.00 99 1102.8
20210620010309 7 317 3.2 19.3 0.00 0.00 0.00 99 1097.8
20210620005809 7 305 3.2 19.3 0.00 0.00 0.00 99 1086.3
20210620005308 7 323 3.2 19.3 0.00 0.00 0.00 99 1106.4
20210620004809 7 317 4.8 19.3 0.00 0.00 0.00 99 1114.2
20210620004309 7 321 4.8 19.3 0.00 0.00 0.00 99 1107.0
20210620003809 7 318 4.8 19.3 0.00 0.00 0.00 100 1094.0
20210620003308 7 315 3.2 19.3 0.00 0.00 0.00 99 1099.9
20210620002808 7 311 3.2 19.3 0.00 0.00 0.00 99 1098.0
20210620002308 7 305 3.2 19.3 0.00 0.00 0.00 99 1083.1
20210620001809 7 321 4.8 19.3 0.00 0.00 0.00 99 1106.5
20210620001309 7 353 3.2 19.3 0.00 0.00 0.00 100 1167.0
20210620000809 7 333 3.2 19.3 0.00 0.00 0.00 100 1122.8
20210620000309 7 309 3.2 19.3 0.00 0.00 0.00 100 1127.5
20210619235809 7 342 3.2 19.3 0.00 0.00 0.00 99 1135.5
20210619235309 7 325 4.8 19.3 0.00 0.00 0.00 99 1110.6
20210619234808 7 325 3.2 19.3 0.00 0.00 0.00 99 1102.1
20210619234309 7 328 4.8 19.3 0.00 0.00 0.00 99 1105.3
20210619233809 7 326 4.8 19.3 0.00 0.00 0.00 100 1064.9
20210619233309 7 330 4.8 19.3 0.00 0.00 0.00 100 1033.1
20210619232809 7 353 3.2 19.3 0.00 0.00 0.00 100 1002.1
20210619232309 7 318 0.0 19.3 0.00 0.00 0.00 100 1112.0
20210619231808 7 318 0.0 19.3 0.00 0.00 0.00 100 1116.1
20210619231309 7 318 0.0 19.3 0.00 0.00 0.00 100 1121.7
20210619230808 7 318 1.6 19.3 0.00 0.00 0.00 100 1134.1
20210619230307 7 333 3.2 19.3 0.00 0.00 0.00 100 1160.7
20210619225808 7 349 1.6 19.3 0.00 0.00 0.00 100 1147.2
20210619225308 7 311 1.6 19.3 0.00 0.00 0.00 100 1118.7
20210619224807 7 328 8.0 19.3 0.00 0.00 0.00 100 1141.5
20210619224307 7 342 6.4 19.3 0.00 0.00 0.00 100 1145.3
20210619223807 7 339 6.4 19.3 0.00 0.00 0.00 100 1126.0
20210619223307 7 320 4.8 19.3 0.00 0.00 0.00 100 1108.5
20210619222806 7 326 4.8 19.3 0.00 0.00 0.00 100 1102.0
20210619222306 7 298 4.8 19.3 0.00 0.00 0.00 99 1090.0
20210619221805 7 329 3.2 19.3 0.00 0.00 0.00 99 1121.4
20210619221305 7 310 4.8 19.3 0.00 0.00 0.00 99 1099.0
20210619220805 7 326 4.8 19.3 0.00 0.00 0.00 99 1134.9
20210619220304 7 330 4.8 19.3 0.00 0.00 0.00 99 1125.7
20210619215804 7 342 6.4 19.3 0.00 0.00 0.00 99 1140.0
20210619215305 7 346 4.8 19.3 0.00 0.00 0.00 100 1117.2
20210619214804 7 314 4.8 19.3 0.00 0.00 0.00 100 1047.2
20210619214303 7 346 4.8 19.3 0.00 0.00 0.00 100 975.4
20210619213803 7 355 4.8 19.3 0.00 0.00 0.00 99 766.6
20210619213303 7 8 4.8 19.3 0.00 0.00 0.00 99 741.6
20210619212802 7 322 1.6 19.3 0.00 0.00 0.00 99 1112.6
20210619212304 7 322 1.6 19.3 0.00 0.00 0.00 99 1109.8
20210619211802 7 316 1.6 19.3 0.00 0.00 0.00 99 1113.9
20210619211302 8 345 3.2 19.3 0.00 0.00 0.00 98 1120.0
20210619210802 8 348 3.2 19.3 0.00 0.00 0.00 99 1070.2
20210619210302 8 324 3.2 19.3 0.00 0.00 0.00 99 978.7
20210619205802 8 307 3.2 19.3 0.00 0.00 0.00 99 877.4
20210619205304 9 194 1.6 19.3 0.00 0.00 0.00 100 714.2
20210619204802 9 184 0.0 19.3 0.00 0.00 0.00 100 712.2
20210619204302 9 216 1.6 19.3 0.00 0.00 0.00 100 735.1
20210619203802 9 179 1.6 19.3 0.00 0.00 0.00 100 666.2
20210619203302 9 158 1.6 19.3 0.00 0.00 0.00 99 663.5
20210619202802 8 150 3.2 19.3 0.00 0.00 0.00 99 710.7
20210619202302 8 232 1.6 19.3 0.00 0.00 0.00 99 712.0
20210619201802 8 175 1.6 19.3 0.00 0.00 0.00 100 618.2
20210619201302 8 101 3.2 19.3 0.00 0.00 0.00 100 620.3
20210619200802 8 184 1.6 19.3 0.00 0.00 0.00 99 661.6
20210619200301 8 181 3.2 19.3 0.00 0.00 0.00 99 596.4
20210619195800 8 101 1.6 19.3 0.00 0.00 0.00 99 614.9
20210619195259 8 192 1.6 19.3 0.00 0.00 0.00 99 665.2
20210619194759 8 196 4.8 19.3 0.00 0.00 0.00 99 605.1
20210619194258 8 142 3.2 19.3 0.00 0.00 0.00 100 576.4
20210619193758 8 136 3.2 19.3 0.00 0.00 0.00 100 603.3
20210619193257 8 172 4.8 19.3 0.00 0.00 0.00 100 635.2
20210619192757 8 176 3.2 19.3 0.00 0.00 0.00 100 630.2
20210619192257 8 178 1.6 19.3 0.00 0.00 0.00 100 586.9
20210619191757 8 115 3.2 19.3 0.00 0.00 0.00 100 494.5
20210619191257 8 125 1.6 19.3 0.00 0.00 0.00 100 487.4
20210619190756 8 91 3.2 19.3 0.00 0.00 0.00 100 474.1
20210619190256 8 114 0.0 19.3 0.00 0.00 0.00 100 493.8
20210619185755 8 48 1.6 19.3 0.00 0.00 0.00 100 511.5
20210619185254 8 183 0.0 19.3 0.00 0.00 0.00 100 692.3
20210619184754 8 197 0.0 19.3 0.00 0.00 0.00 100 669.8
20210619184254 8 133 1.6 19.3 0.00 0.00 0.00 100 596.7
20210619183754 8 141 1.6 19.3 0.00 0.00 0.00 100 642.1
20210619183254 8 176 0.0 19.3 0.00 0.00 0.00 100 674.1
20210619182754 8 176 0.0 19.3 0.00 0.00 0.00 100 674.6
20210619182254 8 175 0.0 19.3 0.00 0.00 0.00 100 674.3
20210619181754 8 176 0.0 19.3 0.00 0.00 0.00 100 674.6
20210619181253 8 176 0.0 19.3 0.00 0.00 0.00 100 673.5
20210619180752 8 175 1.6 19.3 0.00 0.00 0.00 100 673.6
20210619180252 8 176 0.0 19.3 0.00 0.00 0.00 100 673.7
20210619175752 8 176 0.0 19.3 0.00 0.00 0.00 100 673.3
20210619175252 8 176 1.6 19.3 0.00 0.00 0.00 100 673.1
20210619174752 8 175 0.0 19.3 0.00 0.00 0.00 100 672.9
20210619174251 8 176 0.0 19.3 0.00 0.00 0.00 100 671.6
20210619173751 8 176 0.0 19.3 0.00 0.00 0.00 100 669.4
20210619173251 8 176 0.0 19.3 0.00 0.00 0.00 100 665.5
20210619172751 8 176 1.6 19.3 0.00 0.00 0.00 100 657.4
20210619172251 8 161 1.6 19.3 0.00 0.00 0.00 100 631.9
20210619171751 8 167 4.8 19.3 0.00 0.00 0.00 100 607.3
20210619171251 8 149 3.2 19.3 0.00 0.00 0.00 100 575.2
20210619170750 8 139 3.2 19.3 0.00 0.00 0.00 100 574.7
20210619170250 8 156 3.2 19.3 0.00 0.00 0.00 100 586.3
20210619165750 8 136 4.8 19.3 0.00 0.00 0.00 100 588.4
20210619165249 8 163 4.8 19.3 0.00 0.00 0.00 100 609.5
20210619164749 8 186 3.2 19.3 0.00 0.00 0.00 100 613.9
20210619164249 8 132 4.8 19.3 0.00 0.00 0.00 100 539.8
20210619163748 8 124 4.8 19.3 0.00 0.00 0.00 100 536.5
20210619163247 8 136 6.4 17.7 0.00 0.00 0.00 100 537.4
20210619162747 8 147 4.8 17.7 0.00 0.00 0.00 100 539.1
20210619162247 8 113 1.6 17.7 0.00 0.00 0.00 100 523.9
20210619161747 8 133 1.6 17.7 0.00 0.00 0.00 100 534.5
20210619161246 8 103 1.6 17.7 0.00 0.00 0.00 100 530.5
20210619160746 8 148 3.2 17.7 0.00 0.00 0.00 100 560.0
20210619160246 8 136 4.8 17.7 0.00 0.00 0.00 100 543.6
20210619155746 8 136 3.2 17.7 0.00 0.00 0.00 100 547.9
20210619155246 8 146 1.6 17.7 0.00 0.00 0.00 100 557.4
20210619154746 8 120 1.6 17.7 0.00 0.00 0.00 100 572.0
20210619154246 7 151 3.2 17.7 0.00 0.00 0.00 100 575.4
20210619153746 7 136 4.8 17.7 0.00 0.00 0.00 100 554.3
20210619153245 7 139 1.6 17.7 0.00 0.00 0.00 100 565.8
20210619152745 7 143 3.2 17.7 0.00 0.00 0.00 100 566.4
20210619152245 7 145 3.2 17.7 0.00 0.00 0.00 100 550.0
20210619151744 7 115 1.6 17.7 0.00 0.00 0.00 100 536.3
20210619151243 7 120 6.4 17.7 0.00 0.00 0.00 100 544.7
20210619150743 7 123 1.6 17.7 0.00 0.00 0.00 100 552.9
20210619150242 7 168 1.6 17.7 0.00 0.00 0.00 100 566.6
20210619145742 7 123 3.2 17.7 0.00 0.00 0.00 100 522.6
20210619145241 7 114 1.6 17.7 0.00 0.00 0.00 100 525.1
20210619144741 7 119 3.2 17.7 0.00 0.00 0.00 100 548.9
20210619144241 7 108 1.6 17.7 0.00 0.00 0.00 100 515.5
20210619143741 7 129 3.2 17.7 0.00 0.00 0.00 99 523.2
20210619143241 7 110 3.2 17.7 0.00 0.00 0.00 99 503.1
20210619142740 7 116 3.2 17.7 0.00 0.00 0.00 99 506.3
20210619142239 7 118 3.2 17.7 0.00 0.00 0.00 99 509.6
20210619141739 7 126 4.8 17.7 0.00 0.00 0.00 99 512.5
20210619141238 7 120 4.8 17.7 0.00 0.00 0.00 99 506.7
20210619140738 7 118 3.2 24.1 0.00 0.00 0.00 99 497.8
20210619140238 7 117 1.6 24.1 0.00 0.00 0.00 99 495.2
20210619135737 7 95 1.6 24.1 0.00 0.00 0.00 99 484.2
20210619135237 7 113 8.0 24.1 0.00 0.00 0.00 99 501.8
20210619134737 7 118 4.8 24.1 0.00 0.00 0.00 99 514.2
20210619134237 7 125 3.2 24.1 0.00 0.00 0.00 99 519.0
20210619133737 7 123 6.4 24.1 0.00 0.00 0.00 99 496.3
20210619133237 7 117 6.4 24.1 0.00 0.00 0.00 99 493.6
20210619132736 7 127 4.8 17.7 0.00 0.00 0.00 99 506.4
20210619132236 7 110 3.2 17.7 0.00 0.00 0.00 99 505.1
20210619131736 7 129 4.8 17.7 0.00 0.00 0.00 99 512.9
20210619131236 7 121 3.2 17.7 0.00 0.00 0.00 99 502.6
20210619130736 6 118 3.2 17.7 0.00 0.00 0.00 99 495.5
20210619130236 6 119 4.8 17.7 0.00 0.00 0.00 99 487.9
20210619125736 6 96 3.2 17.7 0.00 0.00 0.00 99 472.3
20210619125236 6 106 6.4 17.7 0.00 0.00 0.00 98 486.6
20210619124735 6 103 4.8 17.7 0.00 0.00 0.00 98 496.1
20210619124234 6 112 3.2 17.7 0.00 0.00 0.00 98 499.5
20210619123734 6 112 6.4 17.7 0.00 0.00 0.00 98 502.4
20210619123234 6 115 4.8 17.7 0.00 0.00 0.00 98 500.2
20210619122734 6 122 3.2 17.7 0.00 0.00 0.00 98 514.8
20210619122234 6 119 6.4 17.7 0.00 0.00 0.00 98 527.1
20210619121733 6 146 6.4 17.7 0.00 0.00 0.00 98 542.5
20210619121232 6 126 3.2 19.3 0.00 0.00 0.00 99 523.0
20210619120732 6 131 4.8 19.3 0.00 0.00 0.00 98 515.6
20210619120231 6 132 3.2 19.3 0.00 0.00 0.00 98 510.0
20210619115730 6 108 3.2 19.3 0.00 0.00 0.00 98 499.5
20210619115230 6 111 3.2 19.3 0.00 0.00 0.00 98 503.6
20210619114729 6 119 4.8 19.3 0.00 0.00 0.00 98 511.9
20210619114229 6 128 4.8 19.3 0.00 0.00 0.00 98 527.9
20210619113729 6 118 3.2 19.3 0.00 0.00 0.00 98 507.8
20210619113229 6 134 1.6 19.3 0.00 0.00 0.00 98 515.5
20210619112729 6 127 4.8 19.3 0.00 0.00 0.00 97 515.0
20210619112229 6 103 4.8 19.3 0.00 0.00 0.00 97 523.2
20210619111728 6 121 4.8 19.3 0.00 0.00 0.00 97 556.8
20210619111228 6 140 1.6 19.3 0.00 0.00 0.00 97 553.4
20210619110727 6 129 4.8 19.3 0.00 0.00 0.00 97 537.5
20210619110226 6 141 4.8 17.7 0.00 0.00 0.00 97 545.2
20210619105725 6 129 1.6 17.7 0.00 0.00 0.00 97 529.2
20210619105224 6 134 3.2 17.7 0.00 0.00 0.00 98 520.4
20210619104723 6 140 3.2 17.7 0.00 0.00 0.00 98 550.7
20210619104223 6 153 4.8 17.7 0.00 0.00 0.00 98 545.4
20210619103722 6 117 4.8 17.7 0.00 0.00 0.00 97 532.1
20210619103222 6 141 4.8 17.7 0.00 0.00 0.00 97 557.1
20210619102721 6 140 3.2 17.7 0.00 0.00 0.00 97 549.3
20210619102221 6 146 1.6 17.7 0.00 0.00 0.00 97 548.3
20210619101721 6 139 4.8 17.7 0.00 0.00 0.00 97 519.7
20210619101221 6 113 3.2 17.7 0.00 0.00 0.00 97 501.5
20210619100721 6 116 3.2 17.7 0.00 0.00 0.00 97 502.4
20210619100221 6 125 3.2 17.7 0.00 0.00 0.00 97 511.4
20210619095721 6 117 4.8 17.7 0.00 0.00 0.00 97 495.8
20210619095221 6 111 4.8 17.7 0.00 0.00 0.00 97 493.8
20210619094721 6 106 3.2 17.7 0.00 0.00 0.00 97 485.9
20210619094221 6 112 6.4 17.7 0.00 0.00 0.00 97 512.3
20210619093721 6 139 3.2 17.7 0.00 0.00 0.00 98 537.4
20210619093220 6 101 1.6 17.7 0.00 0.00 0.00 98 501.5
20210619092720 6 117 4.8 17.7 0.00 0.00 0.00 97 520.3
20210619092219 6 112 1.6 17.7 0.00 0.00 0.00 98 533.9
20210619091719 6 136 1.6 17.7 0.00 0.00 0.00 97 552.2
20210619091218 6 125 3.2 17.7 0.00 0.00 0.00 97 554.0
20210619090717 6 137 3.2 17.7 0.00 0.00 0.00 97 531.6
20210619090217 6 114 3.2 17.7 0.00 0.00 0.00 97 510.6
20210619085717 6 128 1.6 17.7 0.00 0.00 0.00 97 515.9
20210619085217 6 124 3.2 17.7 0.00 0.00 0.00 97 515.8
20210619084717 6 118 3.2 17.7 0.00 0.00 0.00 97 522.7
20210619084216 6 133 3.2 17.7 0.00 0.00 0.00 97 542.9
20210619083716 6 116 3.2 17.7 0.00 0.00 0.00 97 525.5
20210619083215 6 138 3.2 17.7 0.00 0.00 0.00 97 531.2
20210619082713 6 112 4.8 17.7 0.00 0.00 0.00 96 502.8
20210619082214 6 118 4.8 19.3 0.00 0.00 0.00 96 521.4
20210619081713 6 132 3.2 19.3 0.00 0.00 0.00 97 535.5
20210619081213 6 124 3.2 19.3 0.00 0.00 0.00 97 544.4
20210619080713 6 129 1.6 19.3 0.00 0.00 0.00 97 533.4
20210619080213 6 126 3.2 19.3 0.00 0.00 0.00 97 535.5
20210619075713 6 139 1.6 19.3 0.00 0.00 0.00 97 530.3
20210619075213 6 125 3.2 19.3 0.00 0.00 0.00 97 503.1
20210619074714 6 117 4.8 19.3 0.00 0.00 0.00 97 505.1
20210619074213 6 141 3.2 19.3 0.00 0.00 0.00 97 516.3
20210619073714 6 112 4.8 19.3 0.00 0.00 0.00 96 496.8
20210619073214 6 104 1.6 19.3 0.00 0.00 0.00 97 492.8
20210619072714 6 112 6.4 19.3 0.00 0.00 0.00 96 501.1
20210619072214 6 110 3.2 19.3 0.00 0.00 0.00 97 519.4
20210619071714 6 111 4.8 19.3 0.00 0.00 0.00 96 528.0
20210619071214 6 121 3.2 19.3 0.00 0.00 0.00 97 565.0
20210619070713 6 154 4.8 19.3 0.00 0.00 0.00 97 589.2
20210619070214 6 134 1.6 19.3 0.00 0.00 0.00 97 568.2
20210619065714 6 162 1.6 19.3 0.00 0.00 0.00 97 582.7
20210619065214 6 153 1.6 19.3 0.00 0.00 0.00 97 571.8
20210619064714 6 157 3.2 19.3 0.00 0.00 0.00 97 565.8
20210619064214 6 121 3.2 19.3 0.00 0.00 0.00 96 524.2
20210619063713 6 108 3.2 19.3 0.00 0.00 0.00 96 514.0
20210619063213 6 132 3.2 19.3 0.00 0.00 0.00 96 555.8
20210619062713 6 142 3.2 19.3 0.00 0.00 0.00 96 572.0
20210619062213 6 121 3.2 19.3 0.00 0.00 0.00 96 560.5
20210619061712 6 145 4.8 19.3 0.00 0.00 0.00 96 552.5
20210619061212 6 133 3.2 19.3 0.00 0.00 0.00 96 556.2
20210619060712 6 144 1.6 19.3 0.00 0.00 0.00 96 581.7
20210619060211 6 126 1.6 19.3 0.00 0.00 0.00 96 612.2
20210619055711 6 169 1.6 19.3 0.00 0.00 0.00 96 668.4
20210619055212 6 146 3.2 19.3 0.00 0.00 0.00 96 676.5
20210619054712 6 198 3.2 19.3 0.00 0.00 0.00 96 691.7
20210619054211 6 178 3.2 19.3 0.00 0.00 0.00 96 662.4
20210619053710 6 166 3.2 19.3 0.00 0.00 0.00 96 651.8
20210619053210 6 166 3.2 19.3 0.00 0.00 0.00 96 645.7
20210619052711 6 179 4.8 19.3 0.00 0.00 0.00 95 640.8
20210619052211 6 146 1.6 19.3 0.00 0.00 0.00 95 593.6
20210619051711 6 186 3.2 19.3 0.00 0.00 0.00 95 562.5
20210619051211 6 84 3.2 19.3 0.00 0.00 0.00 95 467.1
20210619050711 6 122 3.2 19.3 0.00 0.00 0.00 96 499.7
20210619050211 6 75 3.2 19.3 0.00 0.00 0.00 96 490.9
20210619045711 6 130 3.2 19.3 0.00 0.00 0.00 96 526.6
20210619045211 6 123 3.2 19.3 0.00 0.00 0.00 96 510.9
20210619044711 6 122 4.8 19.3 0.00 0.00 0.00 96 507.4
20210619044211 6 125 1.6 19.3 0.00 0.00 0.00 97 526.1
20210619043710 6 124 0.0 19.3 0.00 0.00 0.00 97 538.1
20210619043210 6 149 0.0 19.3 0.00 0.00 0.00 97 595.9
20210619042710 6 169 1.6 19.3 0.00 0.00 0.00 97 596.7
20210619042210 6 115 1.6 19.3 0.00 0.00 0.00 97 583.0
20210619041710 6 177 3.2 19.3 0.00 0.00 0.00 96 630.5
20210619041210 6 165 1.6 19.3 0.00 0.00 0.00 96 568.3
20210619040710 6 108 1.6 19.3 0.00 0.00 0.00 96 530.1
20210619040210 6 118 1.6 19.3 0.00 0.00 0.00 96 586.7
20210619035710 6 181 0.0 19.3 0.00 0.00 0.00 96 614.2
20210619035210 6 125 1.6 19.3 0.00 0.00 0.00 96 554.5
20210619034710 6 147 3.2 19.3 0.00 0.00 0.00 96 557.5
20210619034210 6 112 3.2 19.3 0.00 0.00 0.00 95 555.7
20210619033710 6 158 1.6 19.3 0.00 0.00 0.00 95 600.1
20210619033210 7 150 1.6 19.3 0.00 0.00 0.00 95 583.8
20210619032710 7 140 1.6 19.3 0.00 0.00 0.00 94 572.5
20210619032210 7 153 3.2 19.3 0.00 0.00 0.00 93 548.8
20210619031710 7 126 1.6 19.3 0.00 0.00 0.00 92 519.7
20210619031210 7 118 3.2 19.3 0.00 0.00 0.00 90 538.9
20210619030710 7 132 3.2 19.3 0.00 0.00 0.00 89 555.8